| time (UTC) | temp F | wind direction | speed knots | gust knots | rain 1hr in | rain 24hr in | rain mn in | humidity % | barometer mb |
| 20260904024158 | 63 | 262 | 0.0 | 0.0 | 0.00 | 0.01 | 0.01 | 71 | 1009.8 |
| 20260904023654 | 63 | 257 | 0.0 | 0.0 | 0.00 | 0.01 | 0.01 | 70 | 1009.8 |
| 20260904023150 | 63 | 255 | 0.9 | 1.7 | 0.00 | 0.01 | 0.01 | 69 | 1009.8 |
| 20260904022649 | 64 | 244 | 0.0 | 0.0 | 0.00 | 0.01 | 0.01 | 68 | 1009.6 |
| 20260904022146 | 64 | 264 | 0.0 | 0.0 | 0.00 | 0.01 | 0.01 | 67 | 1009.7 |
| 20260904021642 | 64 | 248 | 0.0 | 0.0 | 0.00 | 0.01 | 0.01 | 67 | 1009.8 |
| 20260904021136 | 64 | 220 | 0.0 | 0.0 | 0.00 | 0.01 | 0.01 | 67 | 1009.5 |
| 20260904020633 | 65 | 252 | 1.7 | 1.7 | 0.00 | 0.01 | 0.01 | 66 | 1009.5 |
| 20260904020127 | 66 | 263 | 0.0 | 0.0 | 0.00 | 0.01 | 0.01 | 65 | 1009.5 |
| 20260904015621 | 65 | 275 | 0.0 | 0.0 | 0.00 | 0.01 | 0.01 | 65 | 1009.7 |
| 20260904015120 | 65 | 256 | 1.7 | 2.6 | 0.00 | 0.01 | 0.01 | 66 | 1009.5 |
| 20260904014619 | 65 | 251 | 2.6 | 4.3 | 0.00 | 0.01 | 0.01 | 67 | 1009.3 |
| 20260904014114 | 65 | 244 | 0.0 | 0.9 | 0.00 | 0.01 | 0.01 | 66 | 1009.5 |
| 20260904013611 | 65 | 288 | 0.0 | 0.9 | 0.00 | 0.01 | 0.01 | 67 | 1009.5 |
| 20260904013107 | 65 | 239 | 0.0 | 0.0 | 0.00 | 0.01 | 0.01 | 66 | 1009.5 |
| 20260904012608 | 64 | 257 | 0.0 | 0.0 | 0.00 | 0.01 | 0.01 | 66 | 1009.5 |
| 20260904012102 | 64 | 231 | 2.6 | 2.6 | 0.00 | 0.01 | 0.01 | 65 | 1009.6 |
| 20260904011601 | 65 | 240 | 0.0 | 0.9 | 0.00 | 0.01 | 0.01 | 64 | 1009.7 |
| 20260904011057 | 65 | 241 | 4.3 | 6.1 | 0.00 | 0.01 | 0.01 | 64 | 1009.5 |
| 20260904010552 | 65 | 236 | 1.7 | 2.6 | 0.00 | 0.01 | 0.01 | 64 | 1009.6 |
| 20260904010050 | 65 | 189 | 0.0 | 0.0 | 0.00 | 0.01 | 0.01 | 65 | 1009.5 |
| 20260904005548 | 65 | 233 | 0.0 | 0.0 | 0.00 | 0.01 | 0.01 | 65 | 1009.6 |
| 20260904005044 | 65 | 197 | 0.0 | 0.0 | 0.00 | 0.01 | 0.01 | 66 | 1009.5 |
| 20260904004539 | 65 | 107 | 0.0 | 0.0 | 0.00 | 0.01 | 0.01 | 66 | 1009.4 |
| 20260904004034 | 65 | 185 | 2.6 | 2.6 | 0.00 | 0.01 | 0.01 | 66 | 1009.5 |
| 20260904003530 | 65 | 191 | 0.0 | 0.0 | 0.00 | 0.01 | 0.01 | 64 | 1009.4 |
| 20260904003026 | 66 | 199 | 2.6 | 2.6 | 0.00 | 0.01 | 0.01 | 60 | 1009.3 |
| 20260904002521 | 66 | 265 | 0.0 | 0.0 | 0.00 | 0.01 | 0.01 | 59 | 1009.3 |
| 20260904002021 | 66 | 272 | 0.0 | 0.0 | 0.00 | 0.01 | 0.01 | 60 | 1009.6 |
| 20260904001517 | 66 | 270 | 0.0 | 0.0 | 0.00 | 0.01 | 0.01 | 60 | 1009.4 |
| 20260904001016 | 66 | 262 | 0.0 | 0.0 | 0.00 | 0.01 | 0.01 | 59 | 1009.4 |
| 20260904000515 | 67 | 235 | 0.0 | 0.0 | 0.00 | 0.01 | 0.01 | 58 | 1009.6 |
| 20260904000012 | 66 | 255 | 0.0 | 0.0 | 0.00 | 0.01 | 0.01 | 60 | 1009.3 |
| 20260903235506 | 66 | 263 | 0.0 | 0.0 | 0.00 | 0.01 | 0.01 | 61 | 1009.2 |
| 20260903235001 | 65 | 207 | 0.0 | 0.0 | 0.00 | 0.01 | 0.01 | 62 | 1009.3 |
| 20260903234456 | 66 | 264 | 0.9 | 0.9 | 0.00 | 0.01 | 0.01 | 61 | 1009.3 |
| 20260903233953 | 67 | 209 | 2.6 | 2.6 | 0.00 | 0.01 | 0.01 | 60 | 1009.4 |
| 20260903233449 | 66 | 321 | 0.0 | 0.0 | 0.00 | 0.01 | 0.01 | 62 | 1009.3 |
| 20260903232943 | 65 | 190 | 1.7 | 1.7 | 0.00 | 0.01 | 0.01 | 62 | 1009.4 |
| 20260903232439 | 66 | 255 | 0.0 | 0.0 | 0.00 | 0.01 | 0.01 | 62 | 1009.3 |
| 20260903231938 | 66 | 266 | 0.0 | 0.0 | 0.00 | 0.01 | 0.01 | 62 | 1009.3 |
| 20260903231434 | 65 | 241 | 0.0 | 0.0 | 0.00 | 0.01 | 0.01 | 62 | 1009.6 |
| 20260903230928 | 65 | 225 | 3.5 | 4.3 | 0.00 | 0.01 | 0.01 | 62 | 1009.5 |
| 20260903230424 | 65 | 266 | 2.6 | 2.6 | 0.00 | 0.01 | 0.01 | 63 | 1009.6 |
| 20260903225920 | 65 | 195 | 4.3 | 5.2 | 0.00 | 0.01 | 0.01 | 63 | 1009.5 |
| 20260903225415 | 66 | 241 | 2.6 | 2.6 | 0.00 | 0.01 | 0.01 | 63 | 1009.6 |
| 20260903224912 | 66 | 248 | 2.6 | 2.6 | 0.00 | 0.01 | 0.01 | 64 | 1009.7 |
| 20260903224408 | 66 | 262 | 1.7 | 1.7 | 0.00 | 0.01 | 0.01 | 63 | 1009.7 |
| 20260903223904 | 65 | 247 | 1.7 | 1.7 | 0.00 | 0.01 | 0.01 | 64 | 1009.7 |
| 20260903223402 | 65 | 260 | 0.0 | 0.0 | 0.00 | 0.01 | 0.01 | 67 | 1009.7 |
| 20260903222856 | 65 | 210 | 1.7 | 1.7 | 0.00 | 0.01 | 0.01 | 67 | 1009.7 |
| 20260903222356 | 66 | 253 | 0.9 | 0.9 | 0.00 | 0.01 | 0.01 | 67 | 1009.7 |
| 20260903221851 | 65 | 248 | 0.0 | 0.0 | 0.00 | 0.01 | 0.01 | 68 | 1009.9 |
| 20260903221350 | 65 | 277 | 0.0 | 0.0 | 0.00 | 0.01 | 0.01 | 68 | 1009.7 |
| 20260903220848 | 64 | 231 | 0.9 | 1.7 | 0.00 | 0.01 | 0.01 | 69 | 1009.8 |
| 20260903220343 | 65 | 246 | 0.0 | 0.0 | 0.00 | 0.01 | 0.01 | 68 | 1009.7 |
| 20260903215841 | 65 | 215 | 1.7 | 4.3 | 0.00 | 0.01 | 0.01 | 66 | 1010.0 |
| 20260903215338 | 65 | 233 | 0.0 | 0.0 | 0.00 | 0.01 | 0.01 | 66 | 1010.0 |
| 20260903214835 | 65 | 183 | 2.6 | 2.6 | 0.00 | 0.01 | 0.01 | 68 | 1009.7 |
| 20260903214332 | 65 | 283 | 0.9 | 1.7 | 0.00 | 0.01 | 0.01 | 68 | 1009.8 |
| 20260903213826 | 65 | 293 | 3.5 | 5.2 | 0.00 | 0.01 | 0.01 | 67 | 1009.5 |
| 20260903213321 | 65 | 247 | 1.7 | 7.0 | 0.00 | 0.01 | 0.01 | 66 | 1009.8 |
| 20260903212817 | 64 | 207 | 7.0 | 7.8 | 0.00 | 0.01 | 0.01 | 68 | 1009.8 |
| 20260903212314 | 64 | 223 | 3.5 | 4.3 | 0.00 | 0.01 | 0.01 | 69 | 1009.8 |
| 20260903211813 | 64 | 221 | 0.9 | 1.7 | 0.00 | 0.01 | 0.01 | 69 | 1009.6 |
| 20260903211309 | 64 | 147 | 1.7 | 1.7 | 0.00 | 0.01 | 0.01 | 69 | 1009.8 |
| 20260903210805 | 64 | 253 | 0.9 | 1.7 | 0.00 | 0.01 | 0.01 | 69 | 1009.8 |
| 20260903210259 | 64 | 248 | 1.7 | 4.3 | 0.00 | 0.01 | 0.01 | 68 | 1009.5 |
| 20260903205754 | 64 | 206 | 1.7 | 4.3 | 0.00 | 0.01 | 0.01 | 68 | 1009.7 |
| 20260903205254 | 63 | 238 | 2.6 | 4.3 | 0.00 | 0.01 | 0.01 | 69 | 1009.4 |
| 20260903204749 | 63 | 192 | 3.5 | 5.2 | 0.00 | 0.01 | 0.01 | 70 | 1009.5 |
| 20260903204245 | 63 | 206 | 2.6 | 6.1 | 0.00 | 0.01 | 0.01 | 70 | 1009.7 |
| 20260903203740 | 63 | 240 | 2.6 | 2.6 | 0.00 | 0.01 | 0.01 | 69 | 1009.6 |
| 20260903203236 | 63 | 258 | 0.9 | 1.7 | 0.00 | 0.01 | 0.01 | 70 | 1009.7 |
| 20260903202735 | 64 | 199 | 7.8 | 8.7 | 0.00 | 0.01 | 0.01 | 69 | 1009.8 |
| 20260903202231 | 64 | 216 | 5.2 | 7.0 | 0.00 | 0.01 | 0.01 | 69 | 1009.4 |
| 20260903201730 | 64 | 275 | 0.9 | 2.6 | 0.00 | 0.01 | 0.01 | 69 | 1009.4 |
| 20260903201226 | 65 | 226 | 3.5 | 5.2 | 0.00 | 0.01 | 0.01 | 66 | 1009.5 |
| 20260903200725 | 66 | 182 | 2.6 | 4.3 | 0.00 | 0.01 | 0.01 | 65 | 1009.6 |
| 20260903200220 | 66 | 216 | 4.3 | 5.2 | 0.00 | 0.01 | 0.01 | 65 | 1009.5 |
| 20260903195716 | 64 | 179 | 0.0 | 0.9 | 0.00 | 0.01 | 0.01 | 68 | 1009.5 |
| 20260903195212 | 63 | 224 | 2.6 | 2.6 | 0.00 | 0.01 | 0.01 | 71 | 1009.7 |
| 20260903194711 | 62 | 201 | 0.0 | 0.9 | 0.00 | 0.01 | 0.01 | 71 | 1009.6 |
| 20260903194207 | 62 | 187 | 0.0 | 0.0 | 0.00 | 0.01 | 0.01 | 72 | 1009.5 |
| 20260903193703 | 62 | 205 | 4.3 | 5.2 | 0.00 | 0.01 | 0.01 | 72 | 1009.6 |
| 20260903193203 | 63 | 225 | 3.5 | 6.1 | 0.00 | 0.01 | 0.01 | 71 | 1009.7 |
| 20260903192659 | 63 | 191 | 3.5 | 5.2 | 0.00 | 0.01 | 0.01 | 71 | 1009.6 |
| 20260903192154 | 63 | 218 | 5.2 | 6.1 | 0.00 | 0.01 | 0.01 | 70 | 1009.3 |
| 20260903191650 | 63 | 225 | 4.3 | 5.2 | 0.00 | 0.01 | 0.01 | 71 | 1009.4 |
| 20260903191150 | 63 | 224 | 5.2 | 6.1 | 0.00 | 0.01 | 0.01 | 71 | 1009.4 |
| 20260903190645 | 62 | 191 | 6.1 | 7.8 | 0.00 | 0.01 | 0.01 | 73 | 1009.4 |
| 20260903190139 | 62 | 204 | 6.1 | 7.8 | 0.00 | 0.01 | 0.01 | 72 | 1009.3 |
| 20260903185634 | 62 | 243 | 3.5 | 6.1 | 0.00 | 0.01 | 0.01 | 72 | 1009.3 |
| 20260903185129 | 62 | 211 | 1.7 | 4.3 | 0.00 | 0.01 | 0.01 | 71 | 1009.6 |
| 20260903184626 | 63 | 247 | 2.6 | 6.1 | 0.00 | 0.01 | 0.01 | 70 | 1009.4 |
| 20260903184122 | 61 | 183 | 5.2 | 6.1 | 0.00 | 0.01 | 0.01 | 72 | 1009.3 |
| 20260903183620 | 61 | 210 | 7.0 | 7.8 | 0.00 | 0.01 | 0.01 | 73 | 1009.3 |
| 20260903183115 | 61 | 207 | 4.3 | 6.1 | 0.00 | 0.01 | 0.01 | 73 | 1009.3 |
| 20260903182614 | 60 | 206 | 7.0 | 8.7 | 0.00 | 0.01 | 0.01 | 73 | 1009.4 |
| 20260903182110 | 60 | 164 | 7.0 | 9.6 | 0.00 | 0.01 | 0.01 | 73 | 1009.2 |
| 20260903181608 | 61 | 212 | 8.7 | 9.6 | 0.00 | 0.01 | 0.01 | 72 | 1009.3 |
| 20260903181103 | 61 | 186 | 5.2 | 6.1 | 0.00 | 0.01 | 0.01 | 73 | 1009.2 |
| 20260903180558 | 61 | 232 | 7.8 | 9.6 | 0.00 | 0.01 | 0.01 | 74 | 1009.2 |
| 20260903180053 | 62 | 192 | 7.8 | 7.8 | 0.00 | 0.01 | 0.01 | 74 | 1009.0 |
| 20260903175552 | 62 | 208 | 5.2 | 7.0 | 0.00 | 0.01 | 0.01 | 74 | 1009.2 |
| 20260903175052 | 62 | 203 | 1.7 | 1.7 | 0.00 | 0.01 | 0.01 | 75 | 1009.3 |
| 20260903174546 | 61 | 183 | 8.7 | 8.7 | 0.00 | 0.01 | 0.01 | 75 | 1009.2 |
| 20260903174041 | 62 | 209 | 2.6 | 4.3 | 0.00 | 0.01 | 0.01 | 74 | 1009.1 |
| 20260903173536 | 60 | 166 | 4.3 | 6.1 | 0.00 | 0.01 | 0.01 | 76 | 1009.0 |
| 20260903173032 | 60 | 171 | 4.3 | 6.1 | 0.00 | 0.01 | 0.01 | 77 | 1009.2 |
| 20260903172527 | 61 | 177 | 8.7 | 9.6 | 0.00 | 0.01 | 0.01 | 74 | 1009.0 |
| 20260903172023 | 61 | 183 | 1.7 | 1.7 | 0.00 | 0.01 | 0.01 | 74 | 1009.1 |
| 20260903171517 | 61 | 163 | 2.6 | 4.3 | 0.00 | 0.01 | 0.01 | 74 | 1008.9 |
| 20260903171013 | 61 | 209 | 7.8 | 8.7 | 0.00 | 0.01 | 0.01 | 74 | 1009.0 |
| 20260903170511 | 61 | 187 | 4.3 | 7.8 | 0.00 | 0.01 | 0.01 | 74 | 1009.0 |
| 20260903170007 | 61 | 217 | 2.6 | 4.3 | 0.00 | 0.01 | 0.01 | 74 | 1009.1 |
| 20260903165459 | 60 | 189 | 2.6 | 4.3 | 0.00 | 0.01 | 0.01 | 74 | 1008.8 |
| 20260903164955 | 60 | 207 | 6.1 | 6.1 | 0.00 | 0.01 | 0.01 | 76 | 1009.0 |
| 20260903164450 | 60 | 178 | 5.2 | 6.1 | 0.00 | 0.01 | 0.01 | 76 | 1008.9 |
| 20260903163949 | 59 | 177 | 9.6 | 11.3 | 0.00 | 0.01 | 0.01 | 77 | 1008.9 |
| 20260903163445 | 60 | 159 | 6.1 | 8.7 | 0.00 | 0.01 | 0.01 | 77 | 1008.9 |
| 20260903162941 | 60 | 203 | 8.7 | 9.6 | 0.00 | 0.01 | 0.01 | 76 | 1009.0 |
| 20260903162437 | 60 | 212 | 4.3 | 5.2 | 0.00 | 0.01 | 0.01 | 76 | 1009.0 |
| 20260903161933 | 60 | 182 | 7.0 | 8.7 | 0.00 | 0.01 | 0.01 | 77 | 1009.1 |
| 20260903161428 | 60 | 151 | 6.1 | 7.8 | 0.00 | 0.01 | 0.01 | 79 | 1009.1 |
| 20260903160924 | 59 | 177 | 6.1 | 7.0 | 0.00 | 0.01 | 0.01 | 79 | 1009.2 |
| 20260903160423 | 59 | 164 | 4.3 | 5.2 | 0.00 | 0.01 | 0.01 | 80 | 1008.9 |
| 20260903155921 | 59 | 160 | 6.1 | 6.1 | 0.00 | 0.01 | 0.01 | 81 | 1009.1 |
| 20260903155417 | 58 | 189 | 5.2 | 6.1 | 0.00 | 0.01 | 0.01 | 82 | 1008.9 |
| 20260903154913 | 58 | 195 | 6.1 | 7.8 | 0.00 | 0.01 | 0.01 | 83 | 1009.0 |
| 20260903154409 | 58 | 159 | 7.0 | 7.8 | 0.00 | 0.01 | 0.01 | 84 | 1008.9 |
| 20260903153909 | 58 | 212 | 1.7 | 1.7 | 0.00 | 0.01 | 0.01 | 85 | 1009.2 |
| 20260903153404 | 58 | 175 | 6.1 | 7.0 | 0.00 | 0.01 | 0.01 | 84 | 1008.8 |
| 20260903152901 | 58 | 116 | 3.5 | 6.1 | 0.00 | 0.01 | 0.01 | 84 | 1008.9 |
| 20260903152356 | 57 | 154 | 1.7 | 1.7 | 0.00 | 0.01 | 0.01 | 86 | 1008.8 |
| 20260903151852 | 57 | 194 | 6.1 | 7.0 | 0.00 | 0.01 | 0.01 | 86 | 1008.9 |
| 20260903151347 | 57 | 175 | 4.3 | 6.1 | 0.00 | 0.01 | 0.01 | 86 | 1009.0 |
| 20260903150846 | 57 | 152 | 3.5 | 4.3 | 0.00 | 0.01 | 0.01 | 85 | 1008.9 |
| 20260903150341 | 57 | 145 | 5.2 | 6.1 | 0.00 | 0.01 | 0.01 | 85 | 1009.2 |
| 20260903145836 | 56 | 142 | 2.6 | 2.6 | 0.00 | 0.01 | 0.01 | 86 | 1008.8 |
| 20260903145331 | 56 | 156 | 7.8 | 8.7 | 0.00 | 0.01 | 0.01 | 86 | 1008.9 |
| 20260903144830 | 56 | 181 | 2.6 | 5.2 | 0.00 | 0.01 | 0.01 | 86 | 1008.9 |
| 20260903144326 | 56 | 131 | 3.5 | 4.3 | 0.00 | 0.01 | 0.01 | 86 | 1008.6 |
| 20260903143821 | 57 | 187 | 5.2 | 6.1 | 0.00 | 0.01 | 0.01 | 87 | 1008.9 |
| 20260903143318 | 56 | 186 | 6.1 | 7.0 | 0.00 | 0.01 | 0.01 | 87 | 1008.6 |
| 20260903142813 | 56 | 199 | 7.8 | 8.7 | 0.00 | 0.01 | 0.01 | 88 | 1008.7 |
| 20260903142309 | 56 | 195 | 2.6 | 4.3 | 0.00 | 0.01 | 0.01 | 89 | 1008.8 |
| 20260903141805 | 56 | 148 | 4.3 | 5.2 | 0.00 | 0.01 | 0.01 | 89 | 1008.5 |
| 20260903141301 | 55 | 151 | 4.3 | 6.1 | 0.00 | 0.01 | 0.01 | 90 | 1008.7 |
| 20260903140800 | 56 | 196 | 1.7 | 1.7 | 0.00 | 0.01 | 0.01 | 90 | 1008.5 |
| 20260903140255 | 55 | 200 | 4.3 | 5.2 | 0.00 | 0.01 | 0.01 | 90 | 1008.5 |
| 20260903135751 | 55 | 171 | 2.6 | 4.3 | 0.00 | 0.01 | 0.01 | 90 | 1008.6 |
| 20260903135246 | 56 | 210 | 5.2 | 6.1 | 0.00 | 0.01 | 0.01 | 90 | 1008.4 |
| 20260903134745 | 55 | 187 | 4.3 | 7.0 | 0.00 | 0.01 | 0.01 | 89 | 1008.6 |
| 20260903134241 | 55 | 167 | 5.2 | 7.0 | 0.00 | 0.01 | 0.01 | 89 | 1008.4 |
| 20260903133738 | 55 | 173 | 7.8 | 8.7 | 0.00 | 0.01 | 0.01 | 89 | 1008.4 |
| 20260903133235 | 55 | 188 | 4.3 | 5.2 | 0.00 | 0.01 | 0.01 | 88 | 1008.3 |
| 20260903132734 | 56 | 183 | 4.3 | 5.2 | 0.00 | 0.01 | 0.01 | 88 | 1008.1 |
| 20260903132230 | 56 | 162 | 7.0 | 8.7 | 0.00 | 0.01 | 0.01 | 88 | 1008.2 |
| 20260903131725 | 56 | 169 | 4.3 | 6.1 | 0.00 | 0.01 | 0.01 | 89 | 1008.2 |
| 20260903131224 | 56 | 201 | 4.3 | 5.2 | 0.00 | 0.01 | 0.01 | 89 | 1008.1 |
| 20260903130719 | 56 | 161 | 3.5 | 5.2 | 0.00 | 0.01 | 0.01 | 89 | 1008.2 |
| 20260903130214 | 56 | 187 | 2.6 | 4.3 | 0.00 | 0.01 | 0.01 | 89 | 1008.1 |
| 20260903125712 | 56 | 148 | 3.5 | 5.2 | 0.00 | 0.01 | 0.01 | 88 | 1008.0 |
| 20260903125208 | 56 | 166 | 4.3 | 6.1 | 0.00 | 0.01 | 0.01 | 87 | 1008.0 |
| 20260903124707 | 56 | 184 | 7.0 | 7.8 | 0.00 | 0.01 | 0.01 | 86 | 1008.1 |
| 20260903124202 | 57 | 212 | 4.3 | 9.6 | 0.00 | 0.01 | 0.01 | 83 | 1008.0 |
| 20260903123701 | 57 | 208 | 11.3 | 13.0 | 0.00 | 0.01 | 0.01 | 81 | 1008.2 |
| 20260903123200 | 57 | 185 | 6.1 | 6.1 | 0.00 | 0.01 | 0.01 | 82 | 1008.0 |
| 20260903122659 | 57 | 158 | 3.5 | 4.3 | 0.00 | 0.01 | 0.01 | 82 | 1008.1 |
| 20260903122154 | 57 | 176 | 3.5 | 4.3 | 0.00 | 0.01 | 0.01 | 81 | 1008.1 |
| 20260903121653 | 57 | 189 | 5.2 | 6.1 | 0.00 | 0.01 | 0.01 | 82 | 1008.1 |
| 20260903121149 | 57 | 156 | 3.5 | 4.3 | 0.00 | 0.01 | 0.01 | 83 | 1007.9 |
| 20260903120648 | 57 | 235 | 0.0 | 0.0 | 0.00 | 0.01 | 0.01 | 83 | 1008.0 |
| 20260903120143 | 57 | 187 | 6.1 | 6.1 | 0.00 | 0.01 | 0.01 | 82 | 1008.0 |
| 20260903115641 | 57 | 179 | 3.5 | 5.2 | 0.00 | 0.01 | 0.01 | 82 | 1007.7 |
| 20260903115137 | 57 | 178 | 2.6 | 2.6 | 0.00 | 0.01 | 0.01 | 82 | 1007.8 |
| 20260903114632 | 57 | 172 | 0.9 | 1.7 | 0.00 | 0.01 | 0.01 | 82 | 1007.8 |
| 20260903114127 | 57 | 156 | 2.6 | 2.6 | 0.00 | 0.01 | 0.01 | 82 | 1007.8 |
| 20260903113622 | 57 | 124 | 2.6 | 4.3 | 0.00 | 0.01 | 0.01 | 82 | 1007.8 |
| 20260903113118 | 57 | 179 | 2.6 | 4.3 | 0.00 | 0.01 | 0.01 | 83 | 1007.8 |
| 20260903112615 | 57 | 165 | 1.7 | 2.6 | 0.00 | 0.01 | 0.01 | 83 | 1007.7 |
| 20260903112114 | 57 | 168 | 4.3 | 6.1 | 0.00 | 0.01 | 0.01 | 84 | 1007.8 |
| 20260903111613 | 57 | 209 | 2.6 | 2.6 | 0.05 | 0.01 | 0.01 | 84 | 1007.9 |
| 20260903111109 | 57 | 210 | 0.9 | 1.7 | 0.05 | 0.01 | 0.01 | 84 | 1007.7 |
| 20260903110605 | 57 | 192 | 3.5 | 4.3 | 0.00 | 0.00 | 0.00 | 83 | 1007.9 |
| 20260903110100 | 57 | 188 | 4.3 | 5.2 | 0.00 | 0.00 | 0.00 | 84 | 1007.7 |
| 20260903105554 | 57 | 198 | 2.6 | 2.6 | 0.00 | 0.00 | 0.00 | 84 | 1007.8 |
| 20260903105044 | 57 | 199 | 3.5 | 4.3 | 0.00 | 0.00 | 0.00 | 84 | 1007.8 |
| 20260903104543 | 57 | 161 | 4.3 | 5.2 | 0.00 | 0.00 | 0.00 | 83 | 1007.7 |
| 20260903104039 | 57 | 197 | 7.0 | 7.8 | 0.00 | 0.00 | 0.00 | 83 | 1007.7 |
| 20260903103535 | 57 | 160 | 7.8 | 9.6 | 0.00 | 0.00 | 0.00 | 83 | 1007.7 |
| 20260903103031 | 57 | 188 | 5.2 | 6.1 | 0.00 | 0.00 | 0.00 | 83 | 1007.8 |
| 20260903102526 | 57 | 177 | 4.3 | 5.2 | 0.00 | 0.00 | 0.00 | 83 | 1007.6 |
| 20260903102025 | 57 | 144 | 4.3 | 5.2 | 0.00 | 0.00 | 0.00 | 83 | 1007.7 |
| 20260903101520 | 57 | 147 | 3.5 | 5.2 | 0.00 | 0.00 | 0.00 | 82 | 1007.5 |
| 20260903101016 | 57 | 182 | 2.6 | 4.3 | 0.00 | 0.00 | 0.00 | 83 | 1007.6 |
| 20260903100511 | 57 | 186 | 3.5 | 4.3 | 0.00 | 0.00 | 0.00 | 82 | 1007.4 |
| 20260903100009 | 57 | 192 | 3.5 | 4.3 | 0.00 | 0.00 | 0.00 | 82 | 1007.6 |
| 20260903095502 | 57 | 183 | 5.2 | 7.8 | 0.00 | 0.00 | 0.00 | 82 | 1007.5 |
| 20260903094957 | 57 | 120 | 2.6 | 2.6 | 0.00 | 0.00 | 0.00 | 82 | 1007.8 |
| 20260903094456 | 57 | 125 | 2.6 | 4.3 | 0.00 | 0.00 | 0.00 | 82 | 1007.6 |
| 20260903093953 | 57 | 215 | 2.6 | 4.3 | 0.00 | 0.00 | 0.00 | 82 | 1007.7 |
| 20260903093448 | 57 | 202 | 5.2 | 6.1 | 0.00 | 0.00 | 0.00 | 81 | 1007.4 |
| 20260903092944 | 58 | 206 | 4.3 | 5.2 | 0.00 | 0.00 | 0.00 | 81 | 1007.6 |
| 20260903092443 | 58 | 206 | 0.0 | 0.9 | 0.00 | 0.00 | 0.00 | 81 | 1007.6 |
| 20260903091942 | 58 | 181 | 2.6 | 2.6 | 0.00 | 0.00 | 0.00 | 81 | 1007.4 |
| 20260903091440 | 58 | 198 | 4.3 | 6.1 | 0.00 | 0.00 | 0.00 | 80 | 1007.4 |
| 20260903090936 | 58 | 234 | 4.3 | 5.2 | 0.00 | 0.00 | 0.00 | 80 | 1007.5 |
| 20260903090432 | 58 | 203 | 4.3 | 6.1 | 0.00 | 0.00 | 0.00 | 80 | 1007.2 |
| 20260903085930 | 58 | 204 | 3.5 | 5.2 | 0.00 | 0.00 | 0.00 | 80 | 1007.4 |
| 20260903085428 | 58 | 197 | 7.0 | 7.8 | 0.00 | 0.00 | 0.00 | 81 | 1007.4 |
| 20260903084928 | 58 | 201 | 6.1 | 7.8 | 0.00 | 0.00 | 0.00 | 82 | 1007.3 |
| 20260903084427 | 57 | 194 | 5.2 | 6.1 | 0.00 | 0.00 | 0.00 | 84 | 1007.3 |
| 20260903083922 | 57 | 194 | 4.3 | 5.2 | 0.00 | 0.00 | 0.00 | 84 | 1007.4 |
| 20260903083419 | 57 | 188 | 4.3 | 6.1 | 0.00 | 0.00 | 0.00 | 85 | 1007.3 |
| 20260903082917 | 57 | 182 | 2.6 | 2.6 | 0.00 | 0.00 | 0.00 | 84 | 1007.4 |
| 20260903082412 | 57 | 175 | 4.3 | 5.2 | 0.00 | 0.00 | 0.00 | 84 | 1007.5 |
| 20260903081908 | 57 | 126 | 4.3 | 5.2 | 0.00 | 0.00 | 0.00 | 84 | 1007.3 |
| 20260903081403 | 57 | 184 | 2.6 | 2.6 | 0.00 | 0.00 | 0.00 | 83 | 1007.4 |
| 20260903080859 | 57 | 182 | 3.5 | 4.3 | 0.00 | 0.00 | 0.00 | 83 | 1007.5 |
| 20260903080356 | 58 | 203 | 3.5 | 4.3 | 0.00 | 0.00 | 0.00 | 83 | 1007.5 |
| 20260903075855 | 58 | 151 | 6.1 | 7.0 | 0.00 | 0.00 | 0.00 | 82 | 1007.3 |
| 20260903075351 | 58 | 189 | 6.1 | 7.0 | 0.00 | 0.00 | 0.00 | 80 | 1007.3 |
| 20260903074850 | 58 | 222 | 4.3 | 6.1 | 0.00 | 0.00 | 0.00 | 80 | 1007.1 |
| 20260903074345 | 58 | 199 | 6.1 | 7.8 | 0.00 | 0.00 | 0.00 | 81 | 1007.1 |
| 20260903073841 | 58 | 196 | 6.1 | 7.0 | 0.00 | 0.00 | 0.00 | 81 | 1007.1 |
| 20260903073335 | 58 | 180 | 8.7 | 12.2 | 0.00 | 0.00 | 0.00 | 81 | 1007.1 |
| 20260903072831 | 58 | 201 | 7.0 | 7.8 | 0.00 | 0.00 | 0.00 | 81 | 1007.2 |
| 20260903072327 | 58 | 182 | 7.0 | 7.8 | 0.00 | 0.00 | 0.00 | 80 | 1007.2 |
| 20260903071824 | 59 | 173 | 5.2 | 6.1 | 0.00 | 0.00 | 0.00 | 80 | 1007.1 |
| 20260903071320 | 59 | 201 | 7.8 | 9.6 | 0.00 | 0.00 | 0.00 | 79 | 1006.8 |
| 20260903070814 | 59 | 194 | 8.7 | 9.6 | 0.00 | 0.00 | 0.00 | 80 | 1007.0 |
| 20260903070310 | 59 | 197 | 9.6 | 13.9 | 0.00 | 0.00 | 0.00 | 80 | 1007.1 |
| 20260903065805 | 59 | 231 | 6.1 | 8.7 | 0.00 | 0.14 | 0.14 | 80 | 1006.9 |
| 20260903065306 | 58 | 160 | 7.8 | 8.7 | 0.00 | 0.14 | 0.14 | 83 | 1007.2 |
| 20260903064803 | 58 | 182 | 6.1 | 7.0 | 0.00 | 0.14 | 0.14 | 84 | 1007.2 |
| 20260903064259 | 58 | 172 | 3.5 | 4.3 | 0.00 | 0.14 | 0.14 | 84 | 1007.0 |
| 20260903063755 | 58 | 200 | 3.5 | 5.2 | 0.00 | 0.14 | 0.14 | 85 | 1007.0 |
| 20260903063249 | 58 | 199 | 4.3 | 5.2 | 0.00 | 0.14 | 0.14 | 84 | 1007.1 |
| 20260903062746 | 59 | 159 | 4.3 | 5.2 | 0.00 | 0.14 | 0.14 | 82 | 1007.1 |
| 20260903062244 | 59 | 199 | 3.5 | 4.3 | 0.00 | 0.14 | 0.14 | 81 | 1007.1 |
| 20260903061741 | 59 | 198 | 3.5 | 5.2 | 0.00 | 0.14 | 0.14 | 82 | 1007.2 |
| 20260903061233 | 59 | 201 | 6.1 | 8.7 | 0.00 | 0.14 | 0.14 | 83 | 1007.2 |
| 20260903060730 | 59 | 195 | 7.0 | 8.7 | 0.00 | 0.14 | 0.14 | 84 | 1007.1 |
| 20260903060229 | 58 | 175 | 7.0 | 7.8 | 0.00 | 0.14 | 0.14 | 85 | 1007.2 |
| 20260903055727 | 58 | 203 | 4.3 | 5.2 | 0.00 | 0.14 | 0.14 | 87 | 1007.0 |
| 20260903055226 | 58 | 199 | 6.1 | 7.0 | 0.00 | 0.14 | 0.14 | 88 | 1006.9 |
| 20260903054721 | 58 | 169 | 6.1 | 6.1 | 0.00 | 0.14 | 0.14 | 88 | 1007.1 |
| 20260903054216 | 59 | 141 | 5.2 | 7.0 | 0.00 | 0.14 | 0.14 | 87 | 1006.9 |
| 20260903053713 | 59 | 177 | 4.3 | 5.2 | 0.00 | 0.14 | 0.14 | 86 | 1006.9 |
| 20260903053207 | 59 | 203 | 4.3 | 4.3 | 0.00 | 0.14 | 0.14 | 83 | 1007.2 |
| 20260903052703 | 59 | 180 | 7.8 | 11.3 | 0.00 | 0.14 | 0.14 | 83 | 1007.0 |
| 20260903052158 | 59 | 198 | 3.5 | 4.3 | 0.00 | 0.14 | 0.14 | 81 | 1006.8 |
| 20260903051653 | 59 | 219 | 4.3 | 5.2 | 0.00 | 0.14 | 0.14 | 80 | 1007.1 |
| 20260903051149 | 59 | 178 | 9.6 | 11.3 | 0.00 | 0.14 | 0.14 | 81 | 1006.8 |
| 20260903050644 | 59 | 194 | 8.7 | 11.3 | 0.00 | 0.14 | 0.14 | 80 | 1006.9 |
| 20260903050138 | 59 | 192 | 5.2 | 7.8 | 0.00 | 0.14 | 0.14 | 79 | 1006.9 |
| 20260903045637 | 59 | 184 | 7.0 | 7.8 | 0.00 | 0.14 | 0.14 | 80 | 1006.8 |
| 20260903045134 | 59 | 199 | 8.7 | 9.6 | 0.00 | 0.14 | 0.14 | 80 | 1006.9 |
| 20260903044630 | 59 | 195 | 8.7 | 11.3 | 0.00 | 0.14 | 0.14 | 81 | 1006.9 |
| 20260903044126 | 59 | 160 | 7.8 | 9.6 | 0.00 | 0.14 | 0.14 | 81 | 1006.9 |
| 20260903043622 | 59 | 210 | 6.1 | 7.8 | 0.00 | 0.14 | 0.14 | 81 | 1006.9 |
| 20260903043121 | 59 | 212 | 7.8 | 11.3 | 0.00 | 0.14 | 0.14 | 81 | 1006.8 |
| 20260903042620 | 59 | 186 | 4.3 | 7.0 | 0.00 | 0.14 | 0.14 | 81 | 1006.8 |
| 20260903042116 | 59 | 237 | 3.5 | 6.1 | 0.00 | 0.14 | 0.14 | 82 | 1006.8 |
| 20260903041612 | 60 | 214 | 7.0 | 8.7 | 0.00 | 0.14 | 0.14 | 82 | 1006.7 |
| 20260903041108 | 60 | 177 | 4.3 | 5.2 | 0.00 | 0.14 | 0.14 | 83 | 1006.9 |
| 20260903040607 | 60 | 204 | 6.1 | 8.7 | 0.00 | 0.14 | 0.14 | 83 | 1006.7 |
| 20260903040103 | 60 | 185 | 6.1 | 7.0 | 0.00 | 0.14 | 0.14 | 84 | 1006.6 |
| 20260903035558 | 60 | 176 | 3.5 | 4.3 | 0.00 | 0.14 | 0.14 | 84 | 1006.6 |
| 20260903035054 | 60 | 189 | 6.1 | 7.0 | 0.00 | 0.14 | 0.14 | 83 | 1006.5 |
| 20260903034549 | 60 | 191 | 6.1 | 7.0 | 0.00 | 0.14 | 0.14 | 81 | 1006.4 |
| 20260903034044 | 60 | 190 | 4.3 | 5.2 | 0.00 | 0.14 | 0.14 | 80 | 1006.6 |
| 20260903033539 | 60 | 188 | 6.1 | 7.8 | 0.00 | 0.14 | 0.14 | 80 | 1006.4 |
| 20260903033035 | 60 | 195 | 7.0 | 8.7 | 0.00 | 0.14 | 0.14 | 80 | 1006.3 |
| 20260903032529 | 59 | 192 | 6.1 | 7.8 | 0.00 | 0.14 | 0.14 | 81 | 1006.2 |
| 20260903032025 | 60 | 240 | 2.6 | 2.6 | 0.00 | 0.14 | 0.14 | 81 | 1006.3 |
| 20260903031524 | 59 | 191 | 6.1 | 7.8 | 0.00 | 0.14 | 0.14 | 81 | 1006.2 |
| 20260903031020 | 59 | 180 | 4.3 | 7.0 | 0.00 | 0.14 | 0.14 | 81 | 1006.1 |
| 20260903030515 | 59 | 199 | 7.0 | 8.7 | 0.00 | 0.14 | 0.14 | 81 | 1005.9 |
| 20260903030011 | 59 | 182 | 7.0 | 7.8 | 0.00 | 0.14 | 0.14 | 82 | 1006.0 |
| 20260903025506 | 59 | 193 | 7.0 | 8.7 | 0.00 | 0.14 | 0.14 | 83 | 1005.8 |
| 20260903025002 | 59 | 197 | 5.2 | 7.0 | 0.00 | 0.14 | 0.14 | 83 | 1005.7 |
| 20260903024501 | 59 | 205 | 8.7 | 11.3 | 0.00 | 0.14 | 0.14 | 83 | 1005.6 |